Location: Banios
(43.0451°N, 0.2335°E)
Time: 23:55:09
(UTC+00:00)

N. Korean satellite - Pass Details

Date: 08 December 2021
Orbit: 447 x 491 km, 97.3° (Epoch: 21 January)

Event Time Altitude Azimuth Distance (km) Brightness Sun altitude
Rises 06:03:38 0° 357° (N) 2,460 9.9 -13.1°
Reaches altitude 10° 06:05:59 10° 342° (NNW) 1,582 8.8 -12.7°
Maximum altitude 06:08:36 21° 291° (WNW) 1,057 7.6 -12.2°
Drops below altitude 10° 06:11:12 10° 240° (WSW) 1,574 8.8 -11.8°
Sets 06:13:32 0° 224° (SW) 2,444 9.9 -11.4°
